Location: Newark
(45.0667°N, 7.8333°E)
Time: 00:16:18
(UTC+00:00)

CUTE-I - Visible Passes

Search period start: 17 October 2019 00:00
Search period end: 27 October 2019 00:00
Orbit: 810 x 825 km, 98.7° (Epoch: 16 October)

Date Brightness Start Highest point End Pass type
(mag) Time Alt. Az. Time Alt. Az. Time Alt. Az.
17 Oct ? 04:38:26 10° NE 04:41:48 17° E 04:45:10 10° SE visible
17 Oct ? 17:41:30 10° SSW 17:46:20 35° W 17:51:12 10° NNW visible
18 Oct ? 04:19:15 10° ENE 04:20:05 10° E 04:20:56 10° E visible
18 Oct ? 17:19:38 10° S 17:24:49 54° W 17:30:02 10° NNW visible
19 Oct ? 16:58:03 10° SSE 17:03:21 83° WSW 17:08:43 10° NNW visible
19 Oct ? 18:42:51 10° WSW 18:44:12 11° W 18:45:33 10° WNW visible
20 Oct ? 05:13:09 10° NNE 05:17:59 34° E 05:22:48 10° SSE visible
20 Oct ? 18:19:02 10° SW 18:22:30 17° W 18:25:59 10° NW visible
21 Oct ? 04:52:16 10° NE 04:56:23 22° E 05:00:31 10° SE visible
21 Oct ? 17:56:26 10° SSW 18:00:52 27° W 18:05:19 10° NW visible
22 Oct ? 04:31:51 10° NE 04:34:44 15° E 04:37:36 10° ESE visible
22 Oct ? 17:34:19 10° SSW 17:39:18 40° W 17:44:19 10° NNW visible
23 Oct ? 17:12:33 10° S 17:17:48 62° WSW 17:23:05 10° NNW visible
24 Oct ? 05:27:21 10° NNE 05:32:29 45° E 05:37:36 10° S visible
24 Oct ? 16:51:04 10° SSE 16:56:22 87° ENE 17:01:43 10° NNW visible
24 Oct ? 18:34:46 10° WSW 18:37:06 13° W 18:39:27 10° WNW visible
25 Oct ? 05:06:17 10° NE 05:10:57 30° E 05:15:36 10° SSE visible
25 Oct ? 18:11:34 10° SW 18:15:25 20° W 18:19:18 10° NW visible
26 Oct ? 04:45:30 10° NE 04:49:20 20° E 04:53:08 10° SE visible
26 Oct ? 17:49:10 10° SSW 17:53:48 30° W 17:58:29 10° NW visible
